�������l�o���
Date,Time,MP-1(��Sv/h),MP-2(��Sv/h),MP-3(��Sv/h),MP-4(��Sv/h),MP-5(��Sv/h),MP-6(��Sv/h),MP-7(��Sv/h),MP-8(��Sv/h),����,����(m/s),���J
2017/07/07,00:00,0.974,1.541,1.026,1.834,1.271,0.531,0.959,0.884,�k�k��,1.5,��
2017/07/07,00:10,0.976,1.544,1.024,1.832,1.268,0.531,0.961,0.885,�k��,0.9,��
2017/07/07,00:20,0.976,1.541,1.028,1.835,1.271,0.529,0.960,0.887,�k��,1.7,��
2017/07/07,00:30,0.976,1.543,1.027,1.835,1.269,0.530,0.958,0.885,�k��,2.0,��
2017/07/07,00:40,0.977,1.542,1.027,1.835,1.269,0.529,0.959,0.885,��,1.5,��
2017/07/07,00:50,0.978,1.541,1.027,1.835,1.271,0.531,0.958,0.886,���k��,1.5,��
2017/07/07,01:00,0.975,1.541,1.028,1.832,1.270,0.529,0.961,0.886,���k��,2.5,��
2017/07/07,01:10,0.976,1.540,1.027,1.834,1.268,0.532,0.961,0.886,��,1.7,��
2017/07/07,01:20,0.976,1.541,1.026,1.834,1.268,0.531,0.960,0.887,��,2.0,��
2017/07/07,01:30,0.976,1.540,1.028,1.835,1.270,0.529,0.960,0.887,���쐼,1.5,��
2017/07/07,01:40,0.973,1.541,1.026,1.830,1.268,0.530,0.963,0.886,�쐼,2.2,��
2017/07/07,01:50,0.975,1.542,1.026,1.833,1.268,0.530,0.959,0.886,��쐼,1.7,��
2017/07/07,02:00,0.972,1.542,1.027,1.833,1.271,0.529,0.960,0.886,��,1.9,��
2017/07/07,02:10,0.977,1.540,1.025,1.831,1.268,0.530,0.961,0.887,���쐼,1.5,��
2017/07/07,02:20,0.977,1.541,1.026,1.832,1.269,0.530,0.960,0.888,���쐼,2.0,��
2017/07/07,02:30,0.976,1.539,1.025,1.833,1.268,0.530,0.960,0.885,�쐼,1.7,��
2017/07/07,02:40,0.976,1.542,1.026,1.832,1.270,0.530,0.961,0.887,��,1.2,��
2017/07/07,02:50,0.976,1.542,1.027,1.832,1.268,0.530,0.958,0.885,�쐼,1.1,��
2017/07/07,03:00,0.975,1.538,1.026,1.834,1.266,0.528,0.960,0.887,�쐼,1.4,��
2017/07/07,03:10,0.975,1.540,1.025,1.833,1.268,0.528,0.960,0.887,���쐼,1.4,��
2017/07/07,03:20,0.971,1.541,1.027,1.834,1.267,0.528,0.960,0.884,���쐼,0.8,��
2017/07/07,03:30,0.972,1.540,1.024,1.833,1.266,0.530,0.960,0.886,�k��,0.9,��
2017/07/07,03:40,0.975,1.539,1.026,1.832,1.269,0.528,0.960,0.887,�k��,0.6,��
2017/07/07,03:50,0.975,1.538,1.024,1.831,1.270,0.530,0.959,0.886,�k,0.9,��
2017/07/07,04:00,0.975,1.539,1.025,1.833,1.270,0.529,0.960,0.886,�k,0.6,��
2017/07/07,04:10,0.976,1.538,1.025,1.835,1.268,0.529,0.960,0.886,-,CALM,��
2017/07/07,04:20,0.975,1.539,1.026,1.832,1.268,0.528,0.960,0.886,�k��,0.8,��
2017/07/07,04:30,0.974,1.539,1.025,1.833,1.266,0.528,0.961,0.887,�k��,2.0,��
2017/07/07,04:40,0.974,1.536,1.023,1.834,1.267,0.529,0.961,0.885,�k��,4.2,��
2017/07/07,04:50,0.974,1.539,1.027,1.832,1.269,0.528,0.960,0.884,�k��,5.1,��
2017/07/07,05:00,0.973,1.538,1.025,1.832,1.269,0.528,0.959,0.886,�k��,5.1,��
2017/07/07,05:10,0.973,1.539,1.026,1.833,1.268,0.528,0.960,0.885,�k��,5.3,��
2017/07/07,05:20,0.973,1.539,1.026,1.834,1.270,0.527,0.962,0.886,�k��,4.7,��
2017/07/07,05:30,0.973,1.541,1.027,1.835,1.266,0.526,0.959,0.887,�k��,4.3,��
2017/07/07,05:40,0.972,1.539,1.024,1.833,1.270,0.528,0.961,0.886,�k��,4.3,��
2017/07/07,05:50,0.973,1.539,1.026,1.834,1.268,0.527,0.961,0.886,���k��,4.6,��
2017/07/07,06:00,0.972,1.539,1.027,1.836,1.269,0.527,0.959,0.885,���k��,3.8,��
2017/07/07,06:10,0.974,1.539,1.025,1.834,1.271,0.528,0.961,0.886,��,3.2,��
2017/07/07,06:20,0.973,1.540,1.026,1.834,1.269,0.529,0.960,0.886,��,2.6,��
2017/07/07,06:30,0.975,1.541,1.025,1.836,1.267,0.528,0.962,0.887,��,3.0,��
2017/07/07,06:40,0.975,1.539,1.026,1.839,1.268,0.529,0.961,0.887,���k��,3.3,��
2017/07/07,06:50,0.975,1.539,1.028,1.836,1.268,0.527,0.961,0.887,��,3.1,��
2017/07/07,07:00,0.975,1.537,1.026,1.838,1.271,0.528,0.962,0.886,��,2.2,��
2017/07/07,07:10,0.976,1.540,1.028,1.838,1.266,0.527,0.961,0.888,���k��,1.7,��
2017/07/07,07:20,0.976,1.538,1.027,1.839,1.265,0.525,0.960,0.885,�k�k��,0.9,��
2017/07/07,07:30,0.976,1.538,1.025,1.837,1.268,0.527,0.962,0.888,�k��,0.9,��
2017/07/07,07:40,0.975,1.539,1.028,1.838,1.270,0.526,0.958,0.888,�k��,0.9,��
2017/07/07,07:50,0.975,1.540,1.031,1.839,1.270,0.527,0.959,0.885,���k��,0.9,��
2017/07/07,08:00,0.974,1.541,1.029,1.840,1.268,0.526,0.959,0.884,���k��,0.6,��
2017/07/07,08:10,0.975,1.538,1.027,1.839,1.269,0.525,0.958,0.884,��,1.4,��
2017/07/07,08:20,0.974,1.542,1.025,1.839,1.271,0.526,0.958,0.885,���쓌,2.6,��
2017/07/07,08:30,0.975,1.541,1.028,1.841,1.267,0.526,0.960,0.885,���쓌,2.3,��
2017/07/07,08:40,0.975,1.541,1.027,1.838,1.268,0.526,0.961,0.884,���쓌,3.0,��
2017/07/07,08:50,0.973,1.545,1.026,1.839,1.269,0.528,0.959,0.884,���쓌,2.6,��
2017/07/07,09:00,0.975,1.546,1.026,1.838,1.271,0.526,0.960,0.886,���쓌,2.6,��
2017/07/07,09:10,0.978,1.545,1.025,1.843,1.271,0.528,0.960,0.885,���쓌,2.8,��
2017/07/07,09:20,0.977,1.546,1.029,1.837,1.271,0.526,0.960,0.884,���쓌,3.6,��
2017/07/07,09:30,0.977,1.544,1.027,1.839,1.273,0.527,0.959,0.883,���쓌,3.1,��
2017/07/07,09:40,0.978,1.545,1.025,1.840,1.275,0.527,0.959,0.884,���쓌,4.0,��
2017/07/07,09:50,0.977,1.547,1.029,1.839,1.273,0.528,0.961,0.884,���쓌,3.1,��
2017/07/07,10:00,0.977,1.549,1.027,1.841,1.272,0.529,0.959,0.884,���쓌,3.5,��
2017/07/07,10:10,0.979,1.549,1.030,1.842,1.275,0.530,0.960,0.885,���쓌,3.4,��
2017/07/07,10:20,0.979,1.550,1.030,1.840,1.274,0.527,0.960,0.886,���쓌,4.0,��
2017/07/07,10:30,0.979,1.551,1.030,1.845,1.274,0.529,0.961,0.885,���쓌,4.7,��
2017/07/07,10:40,0.979,1.549,1.027,1.843,1.275,0.530,0.959,0.885,���쓌,4.1,��
2017/07/07,10:50,0.982,1.551,1.028,1.843,1.278,0.527,0.963,0.886,���쓌,4.7,��
2017/07/07,11:00,0.980,1.552,1.029,1.842,1.273,0.529,0.960,0.885,�쓌,4.9,��
2017/07/07,11:10,0.980,1.550,1.031,1.842,1.277,0.529,0.963,0.886,���쓌,4.0,��
2017/07/07,11:20,0.980,1.552,1.031,1.841,1.279,0.527,0.962,0.887,���쓌,4.1,��
2017/07/07,11:30,0.980,1.551,1.032,1.837,1.276,0.528,0.962,0.886,�쓌,4.5,��
2017/07/07,11:40,0.984,1.552,1.032,1.843,1.282,0.530,0.963,0.888,���쓌,3.7,��
2017/07/07,11:50,0.978,1.544,1.032,1.841,1.281,0.530,0.962,0.887,�쓌,4.3,��
2017/07/07,12:00,0.983,1.542,1.033,1.839,1.280,0.530,0.964,0.886,�쓌,4.2,��
2017/07/07,12:10,0.982,1.553,1.033,1.842,1.282,0.530,0.963,0.888,���쓌,4.2,��
2017/07/07,12:20,0.982,1.556,1.034,1.844,1.281,0.530,0.961,0.886,���쓌,3.5,��
2017/07/07,12:30,0.984,1.559,1.034,1.844,1.282,0.530,0.961,0.887,�쓌,3.5,��
2017/07/07,12:40,0.987,1.558,1.036,1.844,1.283,0.531,0.964,0.888,�쓌,4.7,��
2017/07/07,12:50,0.987,1.559,1.034,1.844,1.284,0.531,0.962,0.889,�쓌,3.8,��
2017/07/07,13:00,0.988,1.561,1.035,1.844,1.283,0.531,0.963,0.887,�쓌,4.7,��
2017/07/07,13:10,0.986,1.559,1.035,1.846,1.284,0.531,0.962,0.886,�쓌,5.3,��
2017/07/07,13:20,0.985,1.561,1.035,1.846,1.285,0.531,0.964,0.888,��쓌,5.5,��
2017/07/07,13:30,0.987,1.559,1.036,1.845,1.287,0.532,0.965,0.888,��쓌,5.7,��
2017/07/07,13:40,0.990,1.560,1.032,1.849,1.286,0.532,0.962,0.888,��쓌,5.6,��
2017/07/07,13:50,0.989,1.563,1.033,1.849,1.288,0.533,0.964,0.888,��쓌,5.0,��
2017/07/07,14:00,0.986,1.562,1.034,1.847,1.286,0.532,0.965,0.885,��쓌,4.1,��
2017/07/07,14:10,0.989,1.561,1.032,1.851,1.287,0.533,0.963,0.890,��쓌,4.7,��
2017/07/07,14:20,0.988,1.562,1.026,1.850,1.286,0.534,0.966,0.887,�쓌,4.7,��
2017/07/07,14:30,0.986,1.565,1.037,1.850,1.287,0.534,0.965,0.886,��쓌,4.1,��
2017/07/07,14:40,0.989,1.566,1.035,1.851,1.289,0.534,0.965,0.889,��쓌,5.0,��
2017/07/07,14:50,0.990,1.563,1.035,1.853,1.284,0.532,0.964,0.888,��쓌,4.3,��
2017/07/07,15:00,0.988,1.568,1.034,1.850,1.287,0.533,0.966,0.888,��쓌,5.2,��
2017/07/07,15:10,0.990,1.564,1.034,1.851,1.289,0.534,0.967,0.888,��쓌,5.9,��
2017/07/07,15:20,0.990,1.565,1.037,1.855,1.289,0.533,0.964,0.889,��,5.7,��
2017/07/07,15:30,0.991,1.566,1.037,1.853,1.288,0.531,0.964,0.887,��쓌,6.2,��
2017/07/07,15:40,0.989,1.564,1.039,1.850,1.289,0.533,0.965,0.887,��,6.0,��
2017/07/07,15:50,0.989,1.563,1.039,1.852,1.288,0.533,0.965,0.890,��쓌,6.6,��
2017/07/07,16:00,0.990,1.567,1.038,1.855,1.291,0.535,0.966,0.889,��,6.4,��
2017/07/07,16:10,0.989,1.566,1.034,1.854,1.293,0.534,0.967,0.886,��,5.6,��
2017/07/07,16:20,0.986,1.563,1.036,1.854,1.292,0.533,0.963,0.888,��쓌,7.3,��
2017/07/07,16:30,0.988,1.567,1.031,1.849,1.292,0.533,0.964,0.889,��쓌,7.1,��
2017/07/07,16:40,0.988,1.567,1.036,1.852,1.291,0.533,0.962,0.888,��쓌,7.4,��
2017/07/07,16:50,0.988,1.568,1.039,1.850,1.291,0.532,0.962,0.887,��,6.6,��
2017/07/07,17:00,0.987,1.565,1.034,1.852,1.290,0.533,0.965,0.888,��,7.5,��
2017/07/07,17:10,0.986,1.567,1.035,1.853,1.290,0.533,0.965,0.888,��,7.3,��
2017/07/07,17:20,0.989,1.566,1.038,1.856,1.292,0.531,0.963,0.887,��,6.7,��
2017/07/07,17:30,0.989,1.566,1.041,1.849,1.290,0.531,0.963,0.888,��,7.4,��
2017/07/07,17:40,0.988,1.565,1.039,1.854,1.293,0.532,0.961,0.887,��,6.4,��
2017/07/07,17:50,0.988,1.566,1.039,1.854,1.294,0.532,0.963,0.888,��,8.0,��
2017/07/07,18:00,0.988,1.564,1.041,1.850,1.294,0.532,0.962,0.887,��,6.7,��
2017/07/07,18:10,0.987,1.563,1.037,1.857,1.293,0.532,0.961,0.888,��,6.3,��
2017/07/07,18:20,0.988,1.567,1.038,1.853,1.291,0.531,0.961,0.887,��,5.5,��
2017/07/07,18:30,0.989,1.568,1.038,1.853,1.289,0.530,0.965,0.888,��,5.4,��
2017/07/07,18:40,0.986,1.566,1.037,1.851,1.291,0.530,0.962,0.889,��,6.5,��
2017/07/07,18:50,0.987,1.567,1.037,1.853,1.289,0.529,0.962,0.889,��,6.7,��
2017/07/07,19:00,0.989,1.566,1.036,1.854,1.287,0.532,0.964,0.891,��,6.6,��
2017/07/07,19:10,0.990,1.568,1.041,1.852,1.290,0.534,0.962,0.890,��,5.4,��
2017/07/07,19:20,0.989,1.568,1.041,1.852,1.292,0.533,0.962,0.892,��,4.4,��
2017/07/07,19:30,0.990,1.570,1.041,1.851,1.292,0.531,0.963,0.888,��,4.3,��
2017/07/07,19:40,0.989,1.569,1.041,1.852,1.291,0.531,0.965,0.890,��쐼,3.7,��
2017/07/07,19:50,0.988,1.568,1.041,1.850,1.294,0.532,0.963,0.888,��쐼,2.9,��
2017/07/07,20:00,0.990,1.570,1.042,1.853,1.291,0.534,0.965,0.889,��쐼,3.6,��
2017/07/07,20:10,0.990,1.570,1.041,1.852,1.291,0.533,0.961,0.889,��쐼,4.3,��
2017/07/07,20:20,0.991,1.570,1.044,1.853,1.289,0.532,0.966,0.889,��쐼,3.9,��
2017/07/07,20:30,0.993,1.570,1.042,1.856,1.293,0.533,0.965,0.890,��쐼,3.9,��
2017/07/07,20:40,0.992,1.567,1.043,1.854,1.292,0.534,0.964,0.888,��,4.1,��
2017/07/07,20:50,0.990,1.571,1.043,1.855,1.293,0.534,0.964,0.889,��쐼,4.3,��
2017/07/07,21:00,0.992,1.569,1.043,1.855,1.290,0.533,0.965,0.889,��쐼,3.3,��
2017/07/07,21:10,0.993,1.569,1.044,1.857,1.291,0.532,0.965,0.890,��쐼,2.6,��
2017/07/07,21:20,0.992,1.569,1.043,1.856,1.293,0.534,0.966,0.890,��쐼,1.9,��
2017/07/07,21:30,0.993,1.570,1.043,1.855,1.292,0.536,0.968,0.891,��쐼,2.0,��
2017/07/07,21:40,0.991,1.571,1.045,1.855,1.293,0.534,0.966,0.891,�쐼,1.2,��
2017/07/07,21:50,0.993,1.569,1.044,1.857,1.291,0.535,0.965,0.891,���쐼,1.7,��
2017/07/07,22:00,0.993,1.570,1.042,1.855,1.294,0.534,0.964,0.891,���쐼,0.9,��
2017/07/07,22:10,0.992,1.570,1.043,1.855,1.291,0.535,0.967,0.889,���쐼,1.7,��
2017/07/07,22:20,0.995,1.568,1.045,1.854,1.291,0.533,0.967,0.891,��,1.5,��
2017/07/07,22:30,0.992,1.569,1.043,1.854,1.292,0.534,0.965,0.890,���k��,2.0,��
2017/07/07,22:40,0.992,1.569,1.044,1.854,1.292,0.534,0.966,0.891,���k��,1.7,��
2017/07/07,22:50,0.992,1.569,1.043,1.853,1.293,0.534,0.966,0.891,�k��,1.7,��
2017/07/07,23:00,0.993,1.571,1.045,1.854,1.290,0.532,0.965,0.890,�k��,1.2,��
2017/07/07,23:10,0.992,1.569,1.043,1.852,1.291,0.533,0.965,0.891,�k��,0.8,��
2017/07/07,23:20,0.990,1.567,1.042,1.859,1.293,0.534,0.965,0.891,���k��,1.2,��
2017/07/07,23:30,0.991,1.567,1.043,1.858,1.291,0.534,0.965,0.890,��,2.3,��
2017/07/07,23:40,0.994,1.568,1.043,1.855,1.292,0.534,0.965,0.892,��,2.0,��
2017/07/07,23:50,0.994,1.569,1.042,1.854,1.292,0.535,0.965,0.892,��,2.3,��
